Time,TemperatureF,DewpointF,PressureIn,WindDirection,WindDirectionDegrees,WindSpeedMPH,WindSpeedGustMPH,Humidity,HourlyPrecipIn,Conditions,Clouds,dailyrainin,SoftwareType,DateUTC
2013-10-21 00:02:00,32.6,24.0,30.10,West,277,3.0,4.0,70,0.00,,,0.00,weatherlink.com 1.10,2013-10-21 05:02:00,
2013-10-21 00:17:00,32.6,24.0,30.10,NW,307,1.0,7.0,70,0.00,,,0.00,weatherlink.com 1.10,2013-10-21 05:17:00,
2013-10-21 00:32:00,32.5,24.0,30.10,WNW,284,3.0,7.0,70,0.00,,,0.00,weatherlink.com 1.10,2013-10-21 05:32:00,
2013-10-21 00:47:00,32.3,24.0,30.10,West,260,2.0,5.0,71,0.00,,,0.00,weatherlink.com 1.10,2013-10-21 05:47:00,
2013-10-21 01:02:00,32.2,23.0,30.10,NNW,333,3.0,8.0,70,0.00,,,0.00,weatherlink.com 1.10,2013-10-21 06:02:00,
2013-10-21 01:17:00,32.1,23.0,30.10,WNW,291,2.0,5.0,69,0.00,,,0.00,weatherlink.com 1.10,2013-10-21 06:17:00,
2013-10-21 01:32:00,32.0,24.0,30.10,West,274,2.0,7.0,72,0.00,,,0.00,weatherlink.com 1.10,2013-10-21 06:32:00,
2013-10-21 01:47:00,31.8,24.0,30.10,WNW,295,4.0,6.0,74,0.00,,,0.00,weatherlink.com 1.10,2013-10-21 06:47:00,
2013-10-21 02:02:00,31.8,24.0,30.10,WNW,301,4.0,5.0,73,0.00,,,0.00,weatherlink.com 1.10,2013-10-21 07:02:00,
2013-10-21 02:17:00,31.6,24.0,30.10,West,262,1.0,3.0,74,0.00,,,0.00,weatherlink.com 1.10,2013-10-21 07:17:00,
2013-10-21 02:32:00,31.5,24.0,30.11,WNW,287,2.0,6.0,74,0.00,,,0.00,weatherlink.com 1.10,2013-10-21 07:32:00,
2013-10-21 02:48:00,31.6,24.0,30.11,WNW,295,2.0,5.0,73,0.00,,,0.00,weatherlink.com 1.10,2013-10-21 07:48:00,
2013-10-21 03:03:00,31.6,23.0,30.11,WNW,284,2.0,6.0,71,0.00,,,0.00,weatherlink.com 1.10,2013-10-21 08:03:00,
2013-10-21 03:18:00,31.6,23.0,30.11,WNW,295,1.0,6.0,70,0.00,,,0.00,weatherlink.com 1.10,2013-10-21 08:18:00,
2013-10-21 03:33:00,31.5,23.0,30.11,West,280,2.0,5.0,70,0.00,,,0.00,weatherlink.com 1.10,2013-10-21 08:33:00,
2013-10-21 03:48:00,31.5,23.0,30.10,West,277,2.0,6.0,70,0.00,,,0.00,weatherlink.com 1.10,2013-10-21 08:48:00,
2013-10-21 04:03:00,31.5,23.0,30.10,WNW,300,1.0,8.0,70,0.00,,,0.00,weatherlink.com 1.10,2013-10-21 09:03:00,
2013-10-21 04:18:00,31.5,22.0,30.10,WNW,294,2.0,9.0,69,0.00,,,0.00,weatherlink.com 1.10,2013-10-21 09:18:00,
2013-10-21 04:33:00,31.4,22.0,30.11,WNW,285,1.0,6.0,69,0.00,,,0.00,weatherlink.com 1.10,2013-10-21 09:33:00,
2013-10-21 04:48:00,30.8,23.0,30.11,West,272,0.0,3.0,72,0.00,,,0.00,weatherlink.com 1.10,2013-10-21 09:48:00,
2013-10-21 05:03:00,30.3,23.0,30.11,WNW,289,0.0,4.0,73,0.00,,,0.00,weatherlink.com 1.10,2013-10-21 10:03:00,
2013-10-21 05:18:00,30.2,23.0,30.11,WNW,295,1.0,3.0,73,0.00,,,0.00,weatherlink.com 1.10,2013-10-21 10:18:00,
2013-10-21 05:33:00,30.2,22.0,30.11,WNW,284,0.0,5.0,72,0.00,,,0.00,weatherlink.com 1.10,2013-10-21 10:33:00,
2013-10-21 05:48:00,30.1,22.0,30.11,NNW,328,1.0,2.0,73,0.00,,,0.00,weatherlink.com 1.10,2013-10-21 10:48:00,
2013-10-21 06:03:00,30.0,22.0,30.11,West,277,0.0,1.0,73,0.00,,,0.00,weatherlink.com 1.10,2013-10-21 11:03:00,
2013-10-21 06:18:00,29.9,23.0,30.11,West,263,0.0,1.0,74,0.00,,,0.00,weatherlink.com 1.10,2013-10-21 11:18:00,
2013-10-21 06:33:00,29.9,23.0,30.11,WNW,287,0.0,2.0,74,0.00,,,0.00,weatherlink.com 1.10,2013-10-21 11:33:00,
2013-10-21 06:48:00,29.8,23.0,30.11,WNW,293,0.0,1.0,75,0.00,,,0.00,weatherlink.com 1.10,2013-10-21 11:48:00,
2013-10-21 07:03:00,29.8,23.0,30.11,WNW,289,0.0,3.0,75,0.00,,,0.00,weatherlink.com 1.10,2013-10-21 12:03:00,
2013-10-21 07:18:00,29.9,23.0,30.11,NW,308,0.0,3.0,75,0.00,,,0.00,weatherlink.com 1.10,2013-10-21 12:18:00,
2013-10-21 07:33:00,29.9,23.0,30.11,NW,310,3.0,7.0,75,0.00,,,0.00,weatherlink.com 1.10,2013-10-21 12:33:00,
2013-10-21 07:48:00,29.7,22.0,30.11,NNW,328,3.0,5.0,73,0.00,,,0.00,weatherlink.com 1.10,2013-10-21 12:48:00,
2013-10-21 08:03:00,29.7,22.0,30.11,WNW,297,3.0,4.0,73,0.00,,,0.00,weatherlink.com 1.10,2013-10-21 13:03:00,
2013-10-21 08:18:00,29.6,22.0,30.11,NW,314,3.0,4.0,72,0.00,,,0.00,weatherlink.com 1.10,2013-10-21 13:18:00,
2013-10-21 08:33:00,29.7,21.0,30.11,WNW,301,3.0,5.0,70,0.00,,,0.00,weatherlink.com 1.10,2013-10-21 13:33:00,
2013-10-21 08:48:00,29.8,21.0,30.12,WNW,290,2.0,5.0,69,0.00,,,0.00,weatherlink.com 1.10,2013-10-21 13:48:00,
2013-10-21 09:03:00,30.0,21.0,30.11,WNW,297,1.0,4.0,68,0.00,,,0.00,weatherlink.com 1.10,2013-10-21 14:03:00,
2013-10-21 09:18:00,30.4,21.0,30.12,WNW,291,2.0,6.0,67,0.00,,,0.00,weatherlink.com 1.10,2013-10-21 14:18:00,
2013-10-21 09:33:00,30.7,21.0,30.12,NW,315,1.0,7.0,67,0.00,,,0.00,weatherlink.com 1.10,2013-10-21 14:33:00,
2013-10-21 09:48:00,30.8,21.0,30.12,WNW,300,1.0,5.0,67,0.00,,,0.00,weatherlink.com 1.10,2013-10-21 14:48:00,
2013-10-21 10:03:00,31.2,21.0,30.12,West,274,1.0,8.0,65,0.00,,,0.00,weatherlink.com 1.10,2013-10-21 15:03:00,
2013-10-21 10:18:00,31.5,21.0,30.12,WNW,295,4.0,8.0,65,0.00,,,0.00,weatherlink.com 1.10,2013-10-21 15:18:00,
2013-10-21 10:33:00,31.2,21.0,30.12,SW,229,3.0,8.0,67,0.00,,,0.00,weatherlink.com 1.10,2013-10-21 15:33:00,
2013-10-21 10:48:00,31.8,21.0,30.12,NNW,347,4.0,9.0,65,0.00,,,0.00,weatherlink.com 1.10,2013-10-21 15:48:00,
2013-10-21 11:03:00,32.1,21.0,30.12,WNW,298,3.0,11.0,63,0.00,,,0.00,weatherlink.com 1.10,2013-10-21 16:03:00,
2013-10-21 11:18:00,32.3,21.0,30.12,WNW,288,3.0,12.0,63,0.00,,,0.00,weatherlink.com 1.10,2013-10-21 16:18:00,
2013-10-21 11:33:00,32.9,20.0,30.12,WSW,253,6.0,11.0,60,0.00,,,0.00,weatherlink.com 1.10,2013-10-21 16:33:00,
2013-10-21 11:48:00,33.2,21.0,30.12,West,276,4.0,13.0,61,0.00,,,0.00,weatherlink.com 1.10,2013-10-21 16:48:00,
2013-10-21 12:03:00,33.5,22.0,30.12,NW,307,4.0,8.0,62,0.00,,,0.00,weatherlink.com 1.10,2013-10-21 17:03:00,
2013-10-21 12:18:00,34.3,22.0,30.12,WNW,284,1.0,10.0,61,0.00,,,0.00,weatherlink.com 1.10,2013-10-21 17:18:00,
2013-10-21 12:33:00,34.6,23.0,30.11,West,276,4.0,10.0,62,0.00,,,0.00,weatherlink.com 1.10,2013-10-21 17:33:00,
2013-10-21 12:48:00,35.6,24.0,30.11,NNW,339,1.0,7.0,62,0.00,,,0.00,weatherlink.com 1.10,2013-10-21 17:48:00,
2013-10-21 13:03:00,35.7,24.0,30.11,WNW,297,4.0,11.0,63,0.00,,,0.00,weatherlink.com 1.10,2013-10-21 18:03:00,
2013-10-21 13:18:00,36.1,24.0,30.11,NW,310,5.0,10.0,62,0.00,,,0.00,weatherlink.com 1.10,2013-10-21 18:18:00,
2013-10-21 13:33:00,36.2,25.0,30.10,NW,307,6.0,9.0,64,0.00,,,0.00,weatherlink.com 1.10,2013-10-21 18:33:00,
2013-10-21 13:48:00,36.8,26.0,30.10,NNE,19,5.0,7.0,64,0.00,,,0.00,weatherlink.com 1.10,2013-10-21 18:48:00,
2013-10-21 14:03:00,36.6,26.0,30.10,WSW,257,2.0,13.0,66,0.00,,,0.00,weatherlink.com 1.10,2013-10-21 19:03:00,
2013-10-21 14:18:00,36.7,25.0,30.09,WNW,297,3.0,11.0,63,0.00,,,0.00,weatherlink.com 1.10,2013-10-21 19:18:00,
2013-10-21 14:33:00,36.4,25.0,30.09,WNW,293,4.0,8.0,63,0.00,,,0.00,weatherlink.com 1.10,2013-10-21 19:33:00,
2013-10-21 14:49:00,36.3,25.0,30.09,WNW,294,2.0,6.0,65,0.00,,,0.00,weatherlink.com 1.10,2013-10-21 19:49:00,
2013-10-21 15:04:00,36.6,25.0,30.09,WNW,302,1.0,9.0,62,0.00,,,0.00,weatherlink.com 1.10,2013-10-21 20:04:00,
2013-10-21 15:19:00,37.9,26.0,30.09,North,6,3.0,6.0,62,0.00,,,0.00,weatherlink.com 1.10,2013-10-21 20:19:00,
2013-10-21 15:34:00,37.1,25.0,30.09,NW,314,2.0,6.0,61,0.00,,,0.00,weatherlink.com 1.10,2013-10-21 20:34:00,
2013-10-21 15:49:00,37.9,25.0,30.09,NNW,333,5.0,9.0,61,0.00,,,0.00,weatherlink.com 1.10,2013-10-21 20:49:00,
2013-10-21 16:04:00,37.5,25.0,30.09,WNW,286,1.0,7.0,61,0.00,,,0.00,weatherlink.com 1.10,2013-10-21 21:04:00,
2013-10-21 16:19:00,37.4,24.0,30.09,North,8,2.0,7.0,60,0.00,,,0.00,weatherlink.com 1.10,2013-10-21 21:19:00,
2013-10-21 16:34:00,37.3,24.0,30.09,WNW,294,2.0,7.0,60,0.00,,,0.00,weatherlink.com 1.10,2013-10-21 21:34:00,
2013-10-21 16:49:00,37.5,25.0,30.09,NNW,334,2.0,5.0,61,0.00,,,0.00,weatherlink.com 1.10,2013-10-21 21:49:00,
2013-10-21 17:04:00,37.5,25.0,30.09,WNW,297,0.0,4.0,62,0.00,,,0.00,weatherlink.com 1.10,2013-10-21 22:04:00,
2013-10-21 17:19:00,37.3,25.0,30.09,WSW,255,1.0,6.0,62,0.00,,,0.00,weatherlink.com 1.10,2013-10-21 22:19:00,
2013-10-21 17:34:00,37.2,25.0,30.09,WNW,291,3.0,4.0,61,0.00,,,0.00,weatherlink.com 1.10,2013-10-21 22:34:00,
2013-10-21 17:49:00,36.7,24.0,30.10,West,274,0.0,3.0,61,0.00,,,0.00,weatherlink.com 1.10,2013-10-21 22:49:00,
2013-10-21 18:04:00,36.6,25.0,30.10,NW,304,0.0,3.0,63,0.00,,,0.00,weatherlink.com 1.10,2013-10-21 23:04:00,
2013-10-21 18:34:00,36.4,25.0,30.10,WNW,290,0.0,4.0,63,0.00,,,0.00,weatherlink.com 1.10,2013-10-21 23:34:00,
2013-10-21 18:49:00,36.2,25.0,30.10,NNE,17,0.0,1.0,65,0.00,,,0.00,weatherlink.com 1.10,2013-10-21 23:49:00,
2013-10-21 19:04:00,36.1,26.0,30.10,WNW,293,0.0,2.0,66,0.00,,,0.00,weatherlink.com 1.10,2013-10-22 00:04:00,
2013-10-21 19:19:00,36.0,25.0,30.10,ENE,73,0.0,1.0,65,0.00,,,0.00,weatherlink.com 1.10,2013-10-22 00:19:00,
2013-10-21 19:34:00,35.9,26.0,30.11,WNW,300,0.0,2.0,68,0.00,,,0.00,weatherlink.com 1.10,2013-10-22 00:34:00,
2013-10-21 19:49:00,35.6,26.0,30.10,NNE,23,0.0,2.0,68,0.00,,,0.00,weatherlink.com 1.10,2013-10-22 00:49:00,
2013-10-21 20:04:00,35.5,26.0,30.11,WNW,293,0.0,1.0,69,0.00,,,0.00,weatherlink.com 1.10,2013-10-22 01:04:00,
2013-10-21 20:19:00,35.6,25.0,30.11,NNW,333,0.0,1.0,66,0.00,,,0.00,weatherlink.com 1.10,2013-10-22 01:19:00,
2013-10-21 20:34:00,35.5,26.0,30.11,NNW,329,0.0,1.0,68,0.00,,,0.00,weatherlink.com 1.10,2013-10-22 01:34:00,
2013-10-21 20:49:00,35.2,27.0,30.11,NE,41,0.0,1.0,71,0.00,,,0.00,weatherlink.com 1.10,2013-10-22 01:49:00,
2013-10-21 21:04:00,35.1,26.0,30.11,NNE,30,0.0,2.0,70,0.00,,,0.00,weatherlink.com 1.10,2013-10-22 02:04:00,
2013-10-21 21:19:00,35.0,26.0,30.11,NE,53,0.0,2.0,70,0.00,,,0.00,weatherlink.com 1.10,2013-10-22 02:19:00,
2013-10-21 21:34:00,34.9,26.0,30.11,NE,34,0.0,2.0,69,0.00,,,0.00,weatherlink.com 1.10,2013-10-22 02:34:00,
2013-10-21 21:49:00,34.9,26.0,30.11,NE,53,1.0,3.0,70,0.00,,,0.00,weatherlink.com 1.10,2013-10-22 02:49:00,
2013-10-21 22:04:00,34.9,27.0,30.11,ENE,58,0.0,2.0,72,0.00,,,0.00,weatherlink.com 1.10,2013-10-22 03:04:00,
2013-10-21 22:19:00,34.7,27.0,30.11,NE,51,0.0,2.0,72,0.00,,,0.00,weatherlink.com 1.10,2013-10-22 03:19:00,
2013-10-21 22:34:00,34.5,26.0,30.11,NE,51,0.0,2.0,72,0.00,,,0.00,weatherlink.com 1.10,2013-10-22 03:34:00,
2013-10-21 22:49:00,34.6,25.0,30.12,NE,41,0.0,3.0,67,0.00,,,0.00,weatherlink.com 1.10,2013-10-22 03:49:00,
2013-10-21 23:04:00,34.5,25.0,30.12,NNW,342,0.0,1.0,68,0.00,,,0.00,weatherlink.com 1.10,2013-10-22 04:04:00,
2013-10-21 23:19:00,34.4,25.0,30.11,WNW,285,0.0,1.0,69,0.00,,,0.00,weatherlink.com 1.10,2013-10-22 04:19:00,
2013-10-21 23:34:00,34.2,25.0,30.12,WNW,285,0.0,1.0,70,0.00,,,0.00,weatherlink.com 1.10,2013-10-22 04:34:00,
2013-10-21 23:49:00,34.1,26.0,30.12,ENE,60,0.0,1.0,72,0.00,,,0.00,weatherlink.com 1.10,2013-10-22 04:49:00,